FW2969 Weather Reports


time (UTC)temp
C
wind
direction
speed
KPH
gust
KPH
rain 1hr
cm
rain 24hr
cm
rain mn
cm
humidity
%
barometer
mb
20260503211532 8 281 11.3 20.9 0.00 1.52 0.00 97 1011.8
20260503210024 8 237 8.0 22.5 0.00 1.52 0.00 97 1011.6
20260503204521 8 224 8.0 24.1 0.00 1.52 1.52 97 1011.4
20260503203023 9 209 6.4 20.9 0.03 1.52 1.52 98 1011.4
20260503201520 9 220 4.8 14.5 0.03 1.52 1.52 98 1011.3
20260503200016 9 205 8.0 19.3 0.03 1.52 1.52 98 1011.1
20260503194521 9 211 6.4 20.9 0.03 1.52 1.52 98 1011.3
20260503193014 9 225 4.8 19.3 0.00 1.50 1.50 98 1011.3
20260503191511 9 224 3.2 17.7 0.00 1.50 1.50 98 1011.2
20260503190011 9 228 3.2 12.9 0.13 1.50 1.50 98 1011.1
20260503184505 9 228 8.0 20.9 0.13 1.50 1.50 97 1011.1
20260503183042 9 228 8.0 24.1 0.58 1.50 1.50 97 1011.0
20260503181531 9 263 12.9 29.0 0.66 1.50 1.50 97 1010.6
20260503180037 10 216 12.9 30.6 0.53 1.37 1.37 98 1010.2
20260503174545 10 208 12.9 25.7 0.53 1.37 1.37 97 1010.3
20260503173002 10 213 6.4 16.1 0.08 0.91 0.91 97 1009.9
20260503171516 10 211 1.6 16.1 0.00 0.84 0.84 98 1009.9
20260503081518 18 245 12.9 25.7 0.00 0.00 0.00 66 1004.9
20260503071516 21 202 4.8 17.7 0.00 0.00 0.00 53 1003.8
20260503054505 20 146 4.8 12.9 0.00 0.00 0.00 46 1003.0
20260503053005 18 133 1.6 11.3 0.00 0.00 0.00 59 1003.1
20260503051503 18 169 3.2 11.3 0.00 0.00 0.00 57 1003.4
20260503050005 18 192 1.6 12.9 0.00 0.00 0.00 53 1003.3
20260503044502 20 183 3.2 9.7 0.00 0.00 0.00 46 1003.2
20260503043102 20 156 1.6 20.9 0.00 0.00 0.00 42 1003.0
20260503041559 18 126 8.0 16.1 0.00 0.00 0.00 47 1002.7
20260503040057 17 97 3.2 19.3 0.00 0.00 0.00 53 1002.9
20260503034557 16 115 4.8 19.3 0.00 0.00 0.00 58 1002.9
20260503033100 15 95 4.8 14.5 0.00 0.00 0.00 69 1003.1
20260503031554 13 105 0.0 11.3 0.00 0.00 0.00 81 1003.4
20260503030052 13 119 0.0 16.1 0.00 0.00 0.00 88 1003.9
20260503024553 13 85 4.8 17.7 0.00 0.00 0.00 90 1004.2
20260503023050 13 30 4.8 11.3 0.00 0.00 0.00 89 1004.9
20260503021550 13 274 1.6 6.4 0.00 0.00 0.00 88 1006.9
20260503020047 13 354 0.0 6.4 0.00 0.00 0.00 85 1006.4
20260503014540 14 55 0.0 4.8 0.00 0.00 0.00 78 1006.1
20260503013038 15 171 4.8 12.9 0.00 0.00 0.00 71 1006.9
20260503011534 16 326 3.2 12.9 0.00 0.00 0.00 58 1005.8
20260503010032 18 7 1.6 6.4 0.00 0.00 0.00 48 1005.1
20260503004527 19 171 0.0 9.7 0.00 0.00 0.00 44 1004.9
20260503003035 19 94 1.6 9.7 0.00 0.00 0.00 44 1004.5
20260503001524 20 142 3.2 14.5 0.00 0.00 0.00 42 1004.5
20260503000023 20 116 1.6 11.3 0.00 0.00 0.00 40 1004.6
20260502234530 20 94 1.6 9.7 0.00 0.00 0.00 38 1004.7
20260502233022 20 147 1.6 12.9 0.00 0.00 0.00 37 1004.7
20260502231525 20 95 1.6 9.7 0.00 0.00 0.00 37 1004.9
20260502230017 20 143 3.2 14.5 0.00 0.00 0.00 36 1005.4
20260502224516 20 92 4.8 20.9 0.00 0.00 0.00 36 1005.0
20260502223013 19 95 6.4 12.9 0.00 0.00 0.00 37 1005.8
20260502221512 19 116 4.8 12.9 0.00 0.00 0.00 39 1006.1
20260502220012 19 110 0.0 9.7 0.00 0.00 0.00 40 1006.8
20260502214506 18 149 1.6 11.3 0.00 0.00 0.00 40 1006.9
20260502213005 18 112 1.6 6.4 0.00 0.00 0.00 41 1007.0